Location: Unspecified
(0.0000°N, 0.0000°E)
Time: 15:36:50
(UTC+00:00)

deb Briz - Pass Details

Date: 24 February 2026
Orbit: 1589 x 2054 km, 64.9° (Epoch: 5 March)

Event Time Altitude Azimuth Distance (km) Brightness Sun altitude
Rises 02:30:18 0° 181° (S) 5,280 ? -54.6°
Reaches altitude 10° 02:34:16 10° 171° (S) 4,212 ? -53.7°
Maximum altitude 02:43:09 31° 113° (ESE) 2,742 ? -51.5°
Drops below altitude 10° 02:51:21 10° 55° (NE) 3,909 ? -49.5°
Sets 02:54:48 0° 45° (NE) 4,848 ? -48.7°
